Погода в Леботере

Россия / Томская область     57°52′39″N   83°10′31″E
темп.,
°C
ветер,
м/с
пор.,
м/с
влажн.,
%
обл.,
%
осадки,
мм/ч
давл.,
гПа
погр.,
м
17 июня, чт
чт1701:00+15ююз389896 3.8 1007184
04:00+15зюз2598100 1.6 1006115
07:00+16зсз379860 1.6 1007276
10:00+20зсз357524 0.3 1007758
13:00+24зсз464325 0.8 10062299
16:00+24зсз473652 0.0 10052439
19:00+21сз475465 0.0 1005699
22:00+16зюз00772 0.0 100511
18 июня, пт
пт1801:00+14ю23820 0.0 100545
04:00+12ю248159 0.0 100368
07:00+16юз287797 0.0 1003297
10:00+21ююз246797 0.0 1002524
13:00+25ю345179 0.0 10011159
16:00+26ююв254859 0.0 10001414
19:00+27ю35506 0.0 9981523
22:00+22ююв411747 0.0 997289
19 июня, сб
сб1901:00+18ююв269197 0.1 997106
04:00+17юв2298100 3.9 99637
07:00+18зюз2797100 3.9 997273
10:00+21з347780 0.0 997729
13:00+21ссз437461 0.3 997527
16:00+17зсз699667 5.7 997485
19:00+15сз3599100 29.4 997149
22:00+14зсз1299100 0.0 99883
20 июня, вс
вс2001:00+14юз139994 0.1 998192
04:00+11юз4998100 0.0 1000570
07:00+10ююз3691100 0.1 1001666
10:00+12ююз5770100 0.1 10021222
13:00+13ююз585897 0.1 10031437
16:00+14ююз694999 0.0 10041852
19:00+12ю5106140 0.1 10051618
22:00+11ююв3868100 0.0 1005706
21 июня, пн
пн2101:00+9ююв4119113 0.1 1005566
04:00+8ююв5119392 0.1 1006582
07:00+10юв387898 0.1 1006422
10:00+12юв4972100 0.1 1007560
13:00+19юв474816 0.1 10061619
16:00+19вюв375182 0.0 10051105
19:00+18юв37546 0.0 1005873
22:00+15в5117015 0.1 1005404